This is the latest recevied weather packets stored in our database for station/object WB7AAV. If no packets are shown the sender has not sent any weather packets the latest 10 day(s).
| Time | Temp. | Humidity | Pressure | Rain* | Wind** | Luminosity | Snow |
|---|---|---|---|---|---|---|---|
| 1778191212 | 16.11° C | 32% | 1015.1 hPa | 0 mm | - | - | - |
| 1778191092 | 16.11° C | 33% | 1015.1 hPa | 0 mm | - | - | - |
| 1778190972 | 16.11° C | 31% | 1015.1 hPa | 0 mm | - | - | - |
| 1778190853 | 16.11° C | 36% | 1015.2 hPa | 0 mm | - | - | - |
| 1778190732 | 16.11° C | 33% | 1015.2 hPa | 0 mm | - | - | - |
| 1778190613 | 16.11° C | 32% | 1015.2 hPa | 0 mm | - | - | - |
| 1778190492 | 16.11° C | 33% | 1015.2 hPa | 0 mm | - | - | - |
| 1778190374 | 16.11° C | 35% | 1015.2 hPa | 0 mm | - | - | - |
| 1778190310 | 15.56° C | 34% | 1015.3 hPa | 0 mm | - | - | - |
| 1778190133 | 16.11° C | 34% | 1015.3 hPa | 0 mm | - | - | - |
| 1778190011 | 16.11° C | 35% | 1015.3 hPa | 0 mm | - | - | - |
| 1778189890 | 16.11° C | 33% | 1015.3 hPa | 0 mm | - | - | - |
| 1778189770 | 16.11° C | 34% | 1015.3 hPa | 0 mm | - | - | - |
| 1778189651 | 16.11° C | 33% | 1015.4 hPa | 0 mm | - | - | - |
| 1778189530 | 16.11° C | 33% | 1015.4 hPa | 0 mm | - | - | - |
| 1778189410 | 16.11° C | 34% | 1015.5 hPa | 0 mm | - | - | - |
| 1778189290 | 16.11° C | 35% | 1015.4 hPa | 0 mm | - | - | - |
| 1778189170 | 16.11° C | 36% | 1015.5 hPa | 0 mm | - | - | - |
| 1778189109 | 16.11° C | 36% | 1015.5 hPa | 0 mm | - | - | - |
| 1778188930 | 16.11° C | 33% | 1015.5 hPa | 0 mm | - | - | - |
| 1778188821 | 16.11° C | 34% | 1015.5 hPa | 0 mm | - | - | - |
| 1778188690 | 16.11° C | 36% | 1015.7 hPa | 0 mm | - | - | - |
| 1778188570 | 16.11° C | 34% | 1015.5 hPa | 0 mm | - | - | - |
| 1778188452 | 16.11° C | 35% | 1015.7 hPa | 0 mm | - | - | - |
| 1778188330 | 16.11° C | 37% | 1015.7 hPa | 0 mm | - | - | - |
* Rain latest hour (hover to see other rain measurements)
** Current wind speed in m/s (hover to see current wind gust speed)